• MPC Preparation (Info)

  • MPEC 2004-D37 : 2004 CM111

    The following Minor Planet Electronic Circular may be linked-to from your own Web pages, but must not otherwise be redistributed electronically.

    A form allowing access to any MPEC is at the bottom of this page.


    Read MPEC 2004-D36 Read MPEC 2004-D38


    M.P.E.C. 2004-D37                                Issued 2004 Feb. 25, 23:30 UT
    
         The Minor Planet Electronic Circulars contain information on unusual
             minor planets and routine data on comets.  They are published
       on behalf of Commission 20 of the International Astronomical Union by the
              Minor Planet Center, Smithsonian Astrophysical Observatory,
                              Cambridge, MA 02138, U.S.A.
    
             Supported in part by the Steven and Michele Kirsch Foundation
                 Prepared using the Tamkin Foundation Computer Network
    
                                  MPC@CFA.HARVARD.EDU
              URL http://cfa-www.harvard.edu/iau/mpc.html  ISSN 1523-6714
    
                                      2004 CM111
    
    Observations:
         K04CB1M* C2004 02 13.41475 09 51 44.61 +18 41 32.1          21.6 V ED037691
         K04CB1M  C2004 02 13.44180 09 51 43.91 +18 41 35.2          21.3 V ED037691
         K04CB1M  C2004 02 13.46959 09 51 43.17 +18 41 38.1          21.7 V ED037691
         K04CB1M  C2004 02 16.24650 09 50 35.63 +18 46 33.3                 ED037291
         K04CB1M  C2004 02 16.26599 09 50 35.13 +18 46 35.5                 ED037291
         K04CB1M  C2004 02 16.28395 09 50 34.68 +18 46 37.4                 ED037291
         K04CB1M  C2004 02 17.21122 09 50 12.20 +18 48 12.5          20.7 V ED037291
         K04CB1M  C2004 02 17.21644 09 50 12.06 +18 48 13.0          20.8 V ED037291
         K04CB1M  C2004 02 17.22161 09 50 11.95 +18 48 13.8          20.8 V ED037291
         K04CB1M  C2004 02 17.92027 09 49 54.95 +18 49 23.9          20.2 R ED037493
         K04CB1M  C2004 02 17.92553 09 49 54.82 +18 49 24.7          20.3 R ED037493
         K04CB1M  C2004 02 17.93141 09 49 54.68 +18 49 25.2          20.4 R ED037493
         K04CB1M  C2004 02 17.93577 09 49 54.55 +18 49 25.7                 ED037246
         K04CB1M  C2004 02 17.93804 09 49 54.41 +18 49 26.2                 ED037246
         K04CB1M  C2004 02 17.93950 09 49 54.40 +18 49 26.4                 ED037246
         K04CB1M  C2004 02 17.94196 09 49 54.33 +18 49 25.9                 ED037246
         K04CB1M  C2004 02 17.94452 09 49 54.21 +18 49 26.7                 ED037246
         K04CB1M  C2004 02 18.16167 09 49 49.10 +18 49 48.0          20.7 R ED037H36
         K04CB1M  C2004 02 18.18591 09 49 48.54 +18 49 50.4          20.7 R ED037H36
         K04CB1M  C2004 02 18.20379 09 49 48.11 +18 49 52.8          21.0 V ED037291
         K04CB1M  C2004 02 18.20869 09 49 48.01 +18 49 53.2          21.4 V ED037291
         K04CB1M  C2004 02 18.21294 09 49 47.88 +18 49 53.6          21.0 V ED037291
         K04CB1M  C2004 02 18.30007 09 49 45.70 +18 50 02.5          21.1 R ED037926
         K04CB1M  C2004 02 18.30987 09 49 45.44 +18 50 02.9          20.7 R ED037926
         K04CB1M  C2004 02 18.32007 09 49 45.21 +18 50 04.8          20.5 R ED037854
         K04CB1M  C2004 02 18.32093 09 49 45.09 +18 50 03.7          19.8 R ED037926
         K04CB1M  C2004 02 18.97621 09 49 29.37 +18 51 08.0          21.2 R ED037A21
         K04CB1M  C2004 02 20.87396 09 48 43.81 +18 54 10.8                 ED037246
         K04CB1M  C2004 02 20.88009 09 48 43.66 +18 54 10.6                 ED037246
         K04CB1M  C2004 02 21.30768 09 48 33.33 +18 54 52.0          20.9 R ED037H36
         K04CB1M  C2004 02 21.33060 09 48 32.78 +18 54 53.0          20.9 R ED037H36
         K04CB1M  C2004 02 21.43608 09 48 30.23 +18 55 02.9          21.3 V ED037291
         K04CB1M  C2004 02 21.44025 09 48 30.14 +18 55 03.4          21.1 V ED037291
         K04CB1M  C2004 02 21.44425 09 48 30.02 +18 55 04.2          21.5 V ED037291
         K04CB1M  C2004 02 21.99922 09 48 16.92 +18 55 54.8          20.6 R ED037493
         K04CB1M  C2004 02 22.00772 09 48 16.69 +18 55 56.1          20.7 R ED037493
         K04CB1M IC2004 02 22.33687 09 48 08.95 +18 56 27.0          20.8 V ED037291
         K04CB1M  C2004 02 22.34446 09 48 08.73 +18 56 27.6          20.7 V ED037291
         K04CB1M  C2004 02 22.35274 09 48 08.56 +18 56 27.4          21.4 V ED037291
    
    Observer details:
    246 Klet Observatory-KLENOT.  Observers M. Tichy, M. Kocer, J. Ticha.  1.06-m
        KLENOT Telescope + CCD.
    291 LPL/Spacewatch II.  Observers R. S. McMillan, J. V. Scotti, M. Block,
        A. E. Gleason.  1.8-m f/2.7 reflector + CCD.
    493 Calar Alto.  Observers M. Buchmann, M. Busch, F. Hormuth.  1.52-m
        reflector + CCD.
    691 Steward Observatory, Kitt Peak.  Observer J. A. Larsen.  0.9-m f/3
        reflector + CCD.
    854 Sabino Canyon Observatory, Tucson.  Observer J. E. McGaha.  0.356-m f/10.0
        Schmidt-Cassegrain + CCD.
    926 Tenagra II Observatory.  Observers P. R. Holvorcem, M. Schwartz.  0.81-m
        f/7 Ritchey-Chretien + CCD.
    A21 Irmtraut.  Observer J. J. Mueller.  0.31-m f/4.8 reflector + CCD.
    H36 Sandlot Observatory, Scranton.  Observer G. Hug.  0.3-m Schmidt-Cassegrain
        + CCD.
    
    Orbital elements:
    2004 CM111
    Epoch 2004 Feb. 5.0 TT = JDT 2453040.5                  MPC
    M   1.12909              (2000.0)            P               Q
    n   0.00517484     Peri.   83.40634     -0.45213037     -0.89082034
    a  33.1033059      Node    33.59069     +0.78291987     -0.42048347
    e   0.8506940      Incl.    4.65645     +0.42733430     -0.17214173
    P 190              H   14.1           G   0.15
    From 39 observations 2004 Feb. 13-22.
    
    Ephemeris:
    2004 CM111               a,e,i = 33.10, 0.85, 5                  q = 4.9425
    Date    TT    R. A. (2000) Decl.     Delta      r     Elong.  Phase     V
    2004 02 25    09 47.11   +19 00.3    4.258    5.224   165.9     2.6    21.1
    2004 03 06    09 43.53   +19 11.7    4.328    5.247   155.5     4.5    21.3
    2004 03 16    09 40.65   +19 17.5    4.424    5.271   145.0     6.2    21.4
    2004 03 26    09 38.72   +19 17.2    4.545    5.295   134.8     7.7    21.6
    2004 04 05    09 37.89   +19 10.6    4.685    5.321   124.8     8.9    21.7
    2004 04 15    09 38.22   +18 58.0    4.842    5.347   115.2     9.8    21.8
    2004 04 25    09 39.72   +18 39.7    5.010    5.374   105.9    10.4    21.9
    2004 05 05    09 42.33   +18 16.1    5.186    5.402    97.0    10.7    22.0
    
    Timothy B. Spahr             (C) Copyright 2004 MPC           M.P.E.C. 2004-D37
    

    Read MPEC 2004-D36 Read MPEC 2004-D38


    MPEC number:

    Enter an MPEC number in one of the following forms:

    • 1997-B01 (the full form)
    • J97B01 (the packed version of the full form)
    • B01 (the abbreviated form)